SATCOM 3

Satellite information

Favourite Embed

Satellite Type and Status

PAYLOADIN ORBIT

Key statistics

Satellite SATCOM 3 at a glance.

Uptime

16769

Days in orbit

Revolutions

≈ 1.8

Per day

Orbit

OTHER

Other

Inclination

8.5

Latest

Satellite identification and parameters

Extended collection of information and parameters for SATCOM 3.

Object identification

Identified? True

Debris? False

Object name: SATCOM 3

International designator: 1979-101A

Object number (NORAD): 11635

Object ID (CCSDS): 11635

Country: UNITED STATES OF AMERICA (US)

Current information (Y/N): Y

RCS size: LARGE

Orbital parameters

Period: 788.932 minutes

Inclination: 8.5204 deg

SMA: 28282.634 km

Apoapsis: 35443.634 km

Periapsis: 8365.365 km

RAAN: 104.1906 deg

Eccentricy: 0.4787084

Argument of periapsis: 64.6448 deg

Mean anomaly: 97.3659 deg

Mean motion: 1.82525259 rev/day

Mean motion (dot): -0.00000038 rev/day2

B* drag term: 0.0 1/REarth

Two-line elements (TLE)

Creation date: Nov. 3, 2025, 11:16 p.m.

Reference frame: TEME

Reference center: EARTH

Epoch: Nov. 3, 2025, 2:10 p.m. UTC

TLE line 0: 0 SATCOM 3

TLE line 1: 1 11635U 79101A 25307.59029167 -.00000038 00000-0 00000+0 0 9991

TLE line 2: 2 11635 8.5204 104.1906 4787084 64.6448 97.3659 1.82525259219851

Live tracking on map

Real-time ground track for satellite SATCOM 3.

In-orbit conjunctions

A list of the most updated potential collisions computed for object SATCOM 3.

Target Orbit TCA Probability of collision Miss distance Type
ARIANE 5 DEB (SYLDA) MEO 2024-12-10 22:31:13 TBA 3627.0 (m) DEBRIS

Associated space launch

First generation geostationary communication satellite built for RCA Americom

SATCOM 3 was lifted into orbit during the mission ‘Delta 3914 | Satcom 3’, on board a Delta 3914 space rocket.

The launch took place on Dec. 7, 1979, 1:35 a.m. from Space Launch Complex 17A.

For more information about the launch, click the button.

Launch to space Delta 3914 | Satcom 3
Delta 3914 | Satcom 3

Agency: N/A

Status: Launch Successful

Launch date: Dec. 7, 1979, 1:35 a.m. UTC

Rocket: Delta 3914

Launch pad: Space Launch Complex 17A

Location: Cape Canaveral SFS, FL, USA

...

Latest news about this satellite

There are no fresh news available about this satellite. Check back as we update our databases every day.


Newsletter sign-up

Weekly statistics, charts and insights to help you stay on top of the space industry.